Location: Sternwarte Stuttgart
(48.7670°N, 9.1830°E)
Time: 20:54:14
(UTC+02:00)

Cosmos 1908 - Pass Details

Date: 24 January 2019
Orbit: 511 x 533 km, 82.5° (Epoch: 22 April)

Event Time Altitude Azimuth Distance (km) Brightness Sun altitude
Rises 06:37:27 0° 204° (SSW) 2,613 6.7 -14.0°
Reaches altitude 10° 06:39:38 10° 210° (SSW) 1,732 5.7 -13.7°
Maximum altitude 06:43:16 44° 284° (WNW) 719 3.4 -13.1°
Drops below altitude 10° 06:46:58 10° 358° (N) 1,752 5.7 -12.5°
Sets 06:49:12 0° 5° (N) 2,647 6.7 -12.1°
